This is the latest recevied weather packets stored in our database for station/object K7ZQU-7. If no packets are shown the sender has not sent any weather packets the latest 10 day(s).
| Time | Temp. | Humidity | Pressure | Rain* | Wind** | Luminosity | Snow |
|---|---|---|---|---|---|---|---|
| 1777517063 | 10° C | 48% | 1019.6 hPa | 0 mm | 0.45 m/s, 134° | - | - |
| 1777516761 | 10° C | 47% | 1019.7 hPa | 0 mm | 0.89 m/s, 97° | - | - |
| 1777516462 | 10° C | 47% | 1019.6 hPa | 0 mm | 0.45 m/s, 108° | - | - |
| 1777516163 | 10.56° C | 45% | 1019.6 hPa | 0 mm | 1.79 m/s, 198° | - | - |
| 1777515864 | 10.56° C | 45% | 1019.6 hPa | 0 mm | 0.89 m/s, 120° | - | - |
| 1777515565 | 10.56° C | 44% | 1019.6 hPa | 0 mm | 1.34 m/s, 103° | - | - |
| 1777515264 | 11.11° C | 43% | 1019.6 hPa | 0 mm | 1.34 m/s, 55° | - | - |
| 1777514666 | 11.11° C | 41% | 1019.6 hPa | 0 mm | 0.89 m/s, 13° | - | - |
| 1777514367 | 11.67° C | 39% | 1019.5 hPa | 0 mm | 0.89 m/s, 48° | - | - |
| 1777513766 | 11.67° C | 36% | 1019.6 hPa | 0 mm | 1.79 m/s, 53° | - | - |
| 1777513467 | 11.67° C | 36% | 1019.6 hPa | 0 mm | 0.45 m/s, 281° | - | - |
| 1777513168 | 12.22° C | 35% | 1019.6 hPa | 0 mm | 1.34 m/s, 353° | - | - |
| 1777512869 | 12.22° C | 34% | 1019.6 hPa | 0 mm | 1.34 m/s, 73° | - | - |
| 1777512269 | 12.22° C | 33% | 1019.6 hPa | 0 mm | 0.89 m/s, 86° | - | - |
| 1777511970 | 12.22° C | 31% | 1019.6 hPa | 0 mm | 2.24 m/s, 134° | - | - |
| 1777511671 | 12.78° C | 32% | 1019.6 hPa | 0 mm | 1.34 m/s, 319° | - | - |
| 1777511372 | 12.78° C | 31% | 1019.6 hPa | 0 mm | 1.34 m/s, 41° | - | - |
| 1777511073 | 12.78° C | 32% | 1019.6 hPa | 0 mm | 0.45 m/s, 350° | - | - |
| 1777510472 | 12.78° C | 32% | 1019.6 hPa | 0 mm | 1.79 m/s, 48° | - | - |
| 1777509575 | 12.78° C | 32% | 1019.5 hPa | 0 mm | 0.89 m/s, 18° | - | - |
| 1777509274 | 12.78° C | 31% | 1019.5 hPa | 0 mm | 2.24 m/s, 28° | - | - |
| 1777508975 | 12.78° C | 33% | 1019.5 hPa | 0 mm | 0.45 m/s, 69° | - | - |
| 1777508078 | 12.78° C | 33% | 1019.4 hPa | 0 mm | 0.45 m/s, 166° | - | - |
| 1777507776 | 12.78° C | 32% | 1019.2 hPa | 0 mm | 2.24 m/s, 10° | - | - |
| 1777507477 | 13.33° C | 32% | 1019.2 hPa | 0 mm | 1.79 m/s, 222° | - | - |
* Rain latest hour (hover to see other rain measurements)
** Current wind speed in m/s (hover to see current wind gust speed)